| time (UTC) | temp F | wind direction | speed MPH | gust MPH | rain 1hr in | rain 24hr in | rain mn in | humidity % | barometer mb |
| 20260904010036 | 75 | 357 | 1.0 | 3.0 | 0.00 | 0.00 | 0.00 | 71 | 1019.4 |
| 20260904004535 | 75 | 359 | 2.0 | 7.0 | 0.00 | 0.00 | 0.00 | 70 | 1019.2 |
| 20260904003034 | 75 | 325 | 4.0 | 8.0 | 0.00 | 0.00 | 0.00 | 72 | 1019.3 |
| 20260904001532 | 75 | 302 | 4.0 | 10.0 | 0.00 | 0.00 | 0.00 | 72 | 1019.4 |
| 20260904000031 | 75 | 352 | 3.0 | 7.0 | 0.00 | 0.00 | 0.00 | 72 | 1019.5 |
| 20260903234528 | 75 | 355 | 3.0 | 8.0 | 0.00 | 0.00 | 0.00 | 73 | 1019.7 |
| 20260903233027 | 75 | 25 | 3.0 | 7.0 | 0.00 | 0.00 | 0.00 | 74 | 1019.7 |
| 20260903231527 | 76 | 320 | 2.0 | 7.0 | 0.00 | 0.00 | 0.00 | 74 | 1019.8 |
| 20260903230034 | 75 | 24 | 3.0 | 9.0 | 0.00 | 0.00 | 0.00 | 75 | 1019.8 |
| 20260903224532 | 75 | 350 | 2.0 | 7.0 | 0.00 | 0.00 | 0.00 | 75 | 1019.8 |
| 20260903223020 | 75 | 19 | 4.0 | 8.0 | 0.00 | 0.00 | 0.00 | 76 | 1019.8 |
| 20260903221518 | 75 | 339 | 1.0 | 5.0 | 0.00 | 0.00 | 0.00 | 75 | 1019.9 |
| 20260903220028 | 75 | 343 | 2.0 | 7.0 | 0.00 | 0.00 | 0.00 | 74 | 1019.9 |
| 20260903214515 | 75 | 306 | 2.0 | 6.0 | 0.00 | 0.00 | 0.00 | 75 | 1019.7 |
| 20260903213022 | 75 | 11 | 3.0 | 7.0 | 0.00 | 0.00 | 0.00 | 75 | 1019.8 |
| 20260903211515 | 75 | 289 | 3.0 | 6.0 | 0.00 | 0.00 | 0.00 | 75 | 1019.9 |
| 20260903210021 | 75 | 331 | 4.0 | 8.0 | 0.00 | 0.00 | 0.00 | 75 | 1019.9 |
| 20260903204516 | 76 | 11 | 2.0 | 6.0 | 0.00 | 0.00 | 0.00 | 74 | 1020.0 |
| 20260903203013 | 76 | 327 | 2.0 | 6.0 | 0.00 | 0.00 | 0.00 | 73 | 1020.0 |
| 20260903201521 | 76 | 326 | 1.0 | 5.0 | 0.00 | 0.00 | 0.00 | 72 | 1020.0 |
| 20260903200012 | 76 | 328 | 2.0 | 5.0 | 0.00 | 0.00 | 0.00 | 72 | 1020.0 |
| 20260903194511 | 76 | 342 | 3.0 | 7.0 | 0.00 | 0.00 | 0.00 | 74 | 1020.0 |
| 20260903193012 | 76 | 309 | 2.0 | 6.0 | 0.00 | 0.00 | 0.00 | 73 | 1019.7 |
| 20260903191510 | 76 | 321 | 1.0 | 5.0 | 0.00 | 0.00 | 0.00 | 71 | 1019.4 |
| 20260903190009 | 77 | 309 | 2.0 | 4.0 | 0.00 | 0.00 | 0.00 | 71 | 1019.5 |
| 20260903184509 | 77 | 333 | 2.0 | 5.0 | 0.00 | 0.00 | 0.00 | 72 | 1019.4 |
| 20260903183008 | 77 | 330 | 1.0 | 7.0 | 0.00 | 0.00 | 0.00 | 74 | 1019.4 |
| 20260903181510 | 77 | 335 | 1.0 | 3.0 | 0.00 | 0.00 | 0.00 | 74 | 1019.3 |
| 20260903180009 | 78 | 354 | 1.0 | 3.0 | 0.00 | 0.00 | 0.00 | 74 | 1019.2 |
| 20260903174506 | 79 | 245 | 0.0 | 1.0 | 0.00 | 0.00 | 0.00 | 73 | 1019.2 |
| 20260903173021 | 81 | 245 | 0.0 | 1.0 | 0.00 | 0.00 | 0.00 | 70 | 1019.2 |
| 20260903171505 | 82 | 245 | 0.0 | 2.0 | 0.00 | 0.00 | 0.00 | 68 | 1019.2 |
| 20260903170004 | 83 | 198 | 0.0 | 3.0 | 0.00 | 0.00 | 0.00 | 67 | 1019.2 |
| 20260903164503 | 83 | 134 | 0.0 | 2.0 | 0.00 | 0.00 | 0.00 | 67 | 1019.2 |
| 20260903163005 | 83 | 202 | 2.0 | 5.0 | 0.00 | 0.00 | 0.00 | 67 | 1019.3 |
| 20260903161503 | 84 | 219 | 2.0 | 4.0 | 0.00 | 0.00 | 0.00 | 66 | 1019.4 |
| 20260903160100 | 84 | 193 | 1.0 | 6.0 | 0.00 | 0.00 | 0.00 | 67 | 1019.4 |
| 20260903154602 | 83 | 81 | 1.0 | 6.0 | 0.00 | 0.00 | 0.00 | 66 | 1019.4 |
| 20260903153059 | 83 | 91 | 2.0 | 6.0 | 0.00 | 0.00 | 0.00 | 68 | 1019.3 |
| 20260903151609 | 83 | 135 | 3.0 | 7.0 | 0.00 | 0.00 | 0.00 | 67 | 1019.4 |
| 20260903150104 | 84 | 133 | 1.0 | 9.0 | 0.00 | 0.00 | 0.00 | 67 | 1019.3 |
| 20260903144557 | 84 | 113 | 1.0 | 8.0 | 0.00 | 0.00 | 0.00 | 69 | 1019.3 |
| 20260903143105 | 83 | 212 | 3.0 | 8.0 | 0.00 | 0.00 | 0.00 | 68 | 1019.3 |
| 20260903141556 | 84 | 105 | 2.0 | 7.0 | 0.00 | 0.00 | 0.00 | 69 | 1019.4 |
| 20260903140055 | 83 | 84 | 2.0 | 7.0 | 0.00 | 0.00 | 0.00 | 71 | 1019.4 |
| 20260903134605 | 84 | 124 | 3.0 | 7.0 | 0.00 | 0.00 | 0.00 | 72 | 1019.5 |
| 20260903133054 | 83 | 49 | 3.0 | 9.0 | 0.00 | 0.00 | 0.00 | 70 | 1019.6 |
| 20260903131555 | 84 | 276 | 2.0 | 7.0 | 0.00 | 0.00 | 0.00 | 74 | 1019.5 |
| 20260903130056 | 83 | 120 | 3.0 | 7.0 | 0.00 | 0.00 | 0.00 | 74 | 1019.5 |
| 20260903124551 | 83 | 215 | 2.0 | 6.0 | 0.00 | 0.00 | 0.00 | 76 | 1019.4 |
| 20260903123051 | 83 | 146 | 2.0 | 8.0 | 0.00 | 0.00 | 0.00 | 74 | 1019.6 |
| 20260903121550 | 83 | 112 | 2.0 | 7.0 | 0.00 | 0.00 | 0.00 | 74 | 1019.6 |
| 20260903120053 | 83 | 212 | 2.0 | 10.0 | 0.00 | 0.00 | 0.00 | 73 | 1019.6 |
| 20260903114550 | 83 | 144 | 3.0 | 8.0 | 0.00 | 0.00 | 0.00 | 71 | 1019.8 |
| 20260903113048 | 84 | 149 | 3.0 | 8.0 | 0.00 | 0.00 | 0.00 | 70 | 1019.6 |
| 20260903111549 | 83 | 167 | 2.0 | 8.0 | 0.00 | 0.00 | 0.00 | 72 | 1019.7 |
| 20260903110046 | 84 | 255 | 3.0 | 8.0 | 0.00 | 0.00 | 0.00 | 67 | 1019.8 |
| 20260903104549 | 85 | 113 | 2.0 | 9.0 | 0.00 | 0.00 | 0.00 | 64 | 1019.9 |
| 20260903103044 | 85 | 224 | 3.0 | 8.0 | 0.00 | 0.00 | 0.00 | 60 | 1020.0 |
| 20260903101541 | 85 | 224 | 1.0 | 4.0 | 0.00 | 0.00 | 0.00 | 61 | 1019.9 |
| 20260903100039 | 84 | 203 | 2.0 | 6.0 | 0.00 | 0.00 | 0.00 | 65 | 1020.2 |
| 20260903094541 | 84 | 214 | 2.0 | 7.0 | 0.00 | 0.00 | 0.00 | 64 | 1020.1 |
| 20260903093049 | 82 | 315 | 1.0 | 4.0 | 0.00 | 0.00 | 0.00 | 63 | 1020.1 |
| 20260903091535 | 82 | 240 | 1.0 | 5.0 | 0.00 | 0.00 | 0.00 | 63 | 1020.3 |
| 20260903090034 | 81 | 222 | 1.0 | 4.0 | 0.00 | 0.00 | 0.00 | 64 | 1020.2 |
| 20260903084528 | 80 | 239 | 2.0 | 4.0 | 0.00 | 0.00 | 0.00 | 66 | 1020.0 |
| 20260903083024 | 79 | 231 | 1.0 | 4.0 | 0.00 | 0.00 | 0.00 | 68 | 1020.1 |
| 20260903081537 | 78 | 277 | 1.0 | 4.0 | 0.00 | 0.00 | 0.00 | 69 | 1019.9 |
| 20260903080019 | 78 | 208 | 1.0 | 5.0 | 0.00 | 0.00 | 0.00 | 70 | 1019.9 |
| 20260903074516 | 77 | 277 | 1.0 | 5.0 | 0.00 | 0.00 | 0.00 | 72 | 1019.9 |
| 20260903073016 | 76 | 286 | 2.0 | 4.0 | 0.00 | 0.00 | 0.00 | 75 | 1019.7 |
| 20260903071514 | 75 | 285 | 2.0 | 4.0 | 0.00 | 0.00 | 0.00 | 78 | 1019.7 |
| 20260903070009 | 75 | 242 | 0.0 | 2.0 | 0.00 | 0.00 | 0.00 | 80 | 1019.7 |
| 20260903064508 | 75 | 241 | 0.0 | 1.0 | 0.00 | 0.00 | 0.00 | 79 | 1019.7 |
| 20260903063004 | 74 | 292 | 0.0 | 1.0 | 0.00 | 0.00 | 0.00 | 76 | 1019.6 |
| 20260903061503 | 73 | 27 | 0.0 | 2.0 | 0.00 | 0.00 | 0.00 | 74 | 1019.4 |
| 20260903060059 | 72 | 39 | 0.0 | 5.0 | 0.00 | 0.00 | 0.00 | 75 | 1019.4 |
| 20260903054557 | 72 | 274 | 0.0 | 5.0 | 0.00 | 0.00 | 0.00 | 74 | 1019.1 |
| 20260903053054 | 71 | 345 | 0.0 | 4.0 | 0.00 | 0.00 | 0.00 | 76 | 1019.1 |
| 20260903051553 | 70 | 335 | 1.0 | 5.0 | 0.00 | 0.00 | 0.00 | 75 | 1018.9 |
| 20260903050052 | 70 | 335 | 1.0 | 5.0 | 0.00 | 0.00 | 0.00 | 76 | 1018.8 |
| 20260903044553 | 69 | 309 | 1.0 | 4.0 | 0.00 | 0.00 | 0.00 | 76 | 1018.6 |
| 20260903043052 | 69 | 326 | 0.0 | 5.0 | 0.00 | 0.00 | 0.00 | 78 | 1018.5 |
| 20260903041549 | 69 | 321 | 0.0 | 3.0 | 0.00 | 0.00 | 0.00 | 81 | 1018.5 |
| 20260903040048 | 69 | 10 | 0.0 | 2.0 | 0.00 | 0.00 | 0.00 | 82 | 1018.8 |
| 20260903034545 | 69 | 1 | 0.0 | 2.0 | 0.00 | 0.00 | 0.00 | 82 | 1018.8 |
| 20260903033044 | 69 | 349 | 0.0 | 3.0 | 0.00 | 0.00 | 0.00 | 82 | 1018.8 |
| 20260903031544 | 70 | 312 | 3.0 | 9.0 | 0.00 | 0.00 | 0.00 | 80 | 1018.8 |
| 20260903030042 | 69 | 8 | 4.0 | 7.0 | 0.00 | 0.00 | 0.00 | 81 | 1018.7 |
| 20260903024540 | 69 | 337 | 2.0 | 6.0 | 0.00 | 0.00 | 0.00 | 82 | 1018.9 |
| 20260903023056 | 69 | 315 | 2.0 | 8.0 | 0.00 | 0.00 | 0.00 | 84 | 1018.9 |
| 20260903021544 | 69 | 2 | 4.0 | 7.0 | 0.00 | 0.00 | 0.00 | 85 | 1018.9 |
| 20260903020036 | 69 | 8 | 2.0 | 6.0 | 0.00 | 0.00 | 0.00 | 85 | 1019.0 |
| 20260903014535 | 70 | 264 | 1.0 | 3.0 | 0.00 | 0.00 | 0.00 | 86 | 1018.9 |
| 20260903013033 | 70 | 354 | 2.0 | 6.0 | 0.00 | 0.00 | 0.00 | 86 | 1018.9 |
| 20260903011532 | 70 | 360 | 3.0 | 7.0 | 0.00 | 0.00 | 0.00 | 86 | 1018.8 |